Weather History for Springfield, VT

Change the Weather History Date:

Friday, April 19, 2013

  Actual Average Record
Temperature  
Mean Temperature 61 °F 46 °F  
Max Temperature 72 °F 58 °F 88 °F (2004)
Min Temperature 50 °F 34 °F 25 °F (2001)
Degree Days  
Heating Degree Days 4 19  
Month to date heating degree days 436 441  
Since 1 July heating degree days 6318 6921  
Cooling Degree Days 0 0  
Month to date cooling degree days 0 0  
Year to date cooling degree days 0 0  
Growing Degree Days 11 (Base 50)    
Moisture  
Dew Point 54 °F    
Average Humidity 77    
Maximum Humidity 93    
Minimum Humidity 61    
Precipitation  
Precipitation 0.34 in 0.11 in 0.39 in (1998)
Month to date precipitation 1.60 2.51  
Year to date precipitation 6.75 11.42  
Sea Level Pressure  
Sea Level Pressure 29.79 in    
Wind  
Wind Speed 10 mph (South)    
Max Wind Speed 23 mph    
Max Gust Speed 31 mph    
Visibility 9 miles    
Events Rain , Thunderstorm    
T = Trace of Precipitation, MM = Missing Value Source: NWS Daily Summary

Daily Weather History Graph

Daily Weather History Graph

Search for Another Location

Airport:

Trip Planner

Search our weather history database for the weather conditions in past years. The results will help you decide how hot, cold, wet, or windy it might be!

Date:

Astronomy

Apr. 19, 2013 Rise Set
Actual Time 6:00 AM EDT 7:38 PM EDT
Civil Twilight 5:30 AM EDT 8:08 PM EDT
Nautical Twilight 4:54 AM EDT 8:44 PM EDT
Astronomical Twilight 4:15 AM EDT 9:24 PM EDT
Moon 1:09 PM EDT (4/19) 2:25 AM EDT (4/19)
Length of Visible Light 14h 37m
Length of Day
13h 37m
First Quarter, 61% of the Moon is Illuminated
Apr 19
First Quarter
Apr 25
Full
May 2
Last Quarter
May 9
New
May 18
First Quarter

Hourly Weather History & Observations

Time (EDT) Temp. Dew Point Humidity Pressure Visibility Wind Dir Wind Speed Gust Speed Precip Events Conditions
12:54 AM 51.1 °F 42.1 °F 71% 30.06 in 10.0 mi SSE 8.1 mph - N/A   Overcast
1:54 AM 51.1 °F 44.1 °F 77% 30.04 in 10.0 mi South 5.8 mph - N/A   Overcast
2:54 AM 50.0 °F 46.0 °F 86% 30.03 in 10.0 mi SE 6.9 mph - N/A   Overcast
3:54 AM 50.0 °F 46.0 °F 86% 29.99 in 10.0 mi Variable 4.6 mph - N/A   Overcast
4:54 AM 50.0 °F 46.9 °F 89% 29.96 in 10.0 mi SE 5.8 mph - N/A   Overcast
5:54 AM 50.0 °F 48.0 °F 93% 29.97 in 10.0 mi Calm Calm - N/A   Overcast
6:54 AM 51.1 °F 48.9 °F 92% 29.95 in 10.0 mi SE 3.5 mph - N/A   Overcast
7:35 AM 53.6 °F 50.0 °F 88% 29.94 in 10.0 mi Variable 4.6 mph - N/A   Overcast
7:54 AM 54.0 °F 50.0 °F 86% 29.94 in 10.0 mi Variable 4.6 mph - N/A   Overcast
8:54 AM 55.9 °F 51.1 °F 84% 29.92 in 10.0 mi South 8.1 mph 17.3 mph N/A   Overcast
9:13 AM 57.2 °F 51.8 °F 82% 29.91 in 10.0 mi SSW 9.2 mph - N/A   Overcast
9:54 AM 57.9 °F 52.0 °F 81% 29.90 in 10.0 mi South 10.4 mph 17.3 mph N/A   Overcast
10:13 AM 60.8 °F 53.6 °F 77% 29.88 in 10.0 mi SSE 10.4 mph 18.4 mph N/A   Mostly Cloudy
11:02 AM 64.4 °F 53.6 °F 68% 29.85 in 10.0 mi South 11.5 mph 20.7 mph N/A   Mostly Cloudy
11:54 AM 68.0 °F 55.0 °F 63% 29.83 in 10.0 mi South 10.4 mph 21.9 mph N/A   Partly Cloudy
12:54 PM 69.1 °F 55.0 °F 61% 29.79 in 10.0 mi SSE 20.7 mph 27.6 mph N/A   Mostly Cloudy
1:54 PM 68.0 °F 57.0 °F 68% 29.77 in 10.0 mi South 10.4 mph 21.9 mph N/A   Overcast
2:12 PM 68.0 °F 55.4 °F 64% 29.76 in 10.0 mi South 13.8 mph 21.9 mph N/A   Mostly Cloudy
2:37 PM 69.8 °F 55.4 °F 60% 29.75 in 10.0 mi South 11.5 mph 19.6 mph N/A   Mostly Cloudy
2:54 PM 72.0 °F 57.0 °F 59% 29.74 in 10.0 mi SSE 15.0 mph 24.2 mph N/A   Mostly Cloudy
3:54 PM 70.0 °F 57.0 °F 63% 29.71 in 10.0 mi South 13.8 mph 26.5 mph N/A   Overcast
4:54 PM 70.0 °F 57.9 °F 65% 29.67 in 10.0 mi SSE 10.4 mph 27.6 mph N/A   Mostly Cloudy
5:54 PM 69.1 °F 59.0 °F 70% 29.60 in 10.0 mi South 11.5 mph 20.7 mph N/A   Scattered Clouds
6:34 PM 68.0 °F 59.0 °F 73% 29.63 in 10.0 mi SSW 15.0 mph 27.6 mph N/A   Mostly Cloudy
6:54 PM 68.0 °F 59.0 °F 73% 29.64 in 10.0 mi South 17.3 mph 27.6 mph N/A   Overcast
7:54 PM 66.0 °F 57.9 °F 75% 29.62 in 10.0 mi South 12.7 mph 24.2 mph N/A   Overcast
8:54 PM 64.9 °F 59.0 °F 81% 29.60 in 10.0 mi South 9.2 mph 20.7 mph 0.00 in Rain Light Rain
9:54 PM 64.0 °F 59.0 °F 84% 29.57 in 10.0 mi South 15.0 mph 28.8 mph 0.00 in   Overcast
10:38 PM 62.6 °F 60.8 °F 94% 29.62 in 1.8 mi WSW 13.8 mph 27.6 mph 0.16 in Rain Heavy Rain
10:50 PM 60.8 °F 59.0 °F 94% 29.63 in 3.0 mi South 9.2 mph - 0.22 in Rain Rain
10:54 PM 60.1 °F 57.9 °F 93% 29.63 in 3.0 mi SSW 6.9 mph - 0.24 in Rain Rain
11:02 PM 60.8 °F 57.2 °F 88% 29.63 in 3.0 mi West 3.5 mph - 0.02 in Rain , Thunderstorm Rain
11:12 PM 60.8 °F 55.4 °F 82% 29.64 in 5.0 mi NW 8.1 mph - 0.04 in Rain Light Rain
11:54 PM 54.0 °F 48.0 °F 80% 29.67 in 10.0 mi West 19.6 mph 23.0 mph 0.07 in Rain Light Rain